Regional Weather Roundup
Issued by NWS Goodland, KS

Home | Current Version | Previous Version | Text Only | Print | Product List | Glossary On
Versions: 1 2 3 4 5 6 7 8 9 10 11 12 13 14 15 16 17 18 19 20 21 22 23 24 25 26 27 28 29 30 31 32 33 34 35 36 37 38 39 40 41 42 43 44 45 46 47 48 49 50
000
ASUS43 KGLD 241108
RWRGLD

GOODLAND FORECAST AREA HOURLY WEATHER ROUNDUP
NATIONAL WEATHER SERVICE GOODLAND KS
500 AM MDT THU APR 24 2014

...OFFICIAL OBSERVATIONS...

CITY           SKY/WX    TMP DP  RH WIND       PRES   REMARKS
GOODLAND KS    CLOUDY    49  32  52 N16       29.86R
HILL CITY KS   CLOUDY    53  41  63 NW10      29.77R
IMPERIAL NEB   CLOUDY    47  36  65 NW14      29.87R
MCCOOK NEB     CLOUDY    53  35  50 N13       29.81S
AKRON CO       MOCLDY    39  17  41 NW20G29   29.95R
BURLINGTON CO  CLOUDY    47  33  58 NW20      29.90R
LIMON CO       PTCLDY    35  22  58 NW15      29.98R
$$

...UNOFFICIAL OBSERVATIONS...

CITY           SKY/WX    TMP DP  RH WIND       PRES   REMARKS
COLBY KS       CLEAR     52  37  58 N15G22    29.82S
LENORA KS        N/A     52  32  46 NW13        N/A
LEOTI KS         N/A     53  32  45 CALM        N/A
NORTON KS      CLOUDY    46  39  76 NW12      29.78R
SHARON SPRINGS   N/A     51  25  36 N12G20      N/A
ST FRANCIS KS  CLOUDY    48  32  53 NW14      29.88R
WAKEENEY KS      N/A     51  39  62 MISG        N/A
TRENTON NEB      N/A     50  32  50 NW12        N/A
KIT CARSON CO    N/A     45  19  35 MISG        N/A
$$



USA.gov is the U.S. government's official web portal to all federal, state and local government web resources and services.